Time,TemperatureF,DewpointF,PressureIn,WindDirection,WindDirectionDegrees,WindSpeedMPH,WindSpeedGustMPH,Humidity,HourlyPrecipIn,Conditions,Clouds,dailyrainin,SoftwareType,DateUTC
2013-02-16 00:00:00,29.5,20.2,29.89,West,266,0.0,0.0,68,0.00,,---,0.00,VWS V14.01,2013-02-16 05:00:00,
2013-02-16 00:05:00,29.3,20.4,29.89,West,266,0.0,0.0,69,0.00,,---,0.00,VWS V14.01,2013-02-16 05:05:00,
2013-02-16 00:10:00,29.3,20.4,29.89,West,266,0.0,0.0,69,0.00,,---,0.00,VWS V14.01,2013-02-16 05:10:00,
2013-02-16 00:16:00,29.3,20.7,29.89,West,266,0.0,0.0,70,0.00,,---,0.00,VWS V14.01,2013-02-16 05:16:00,
2013-02-16 00:21:00,29.5,20.9,29.89,West,266,0.0,0.0,70,0.00,,---,0.00,VWS V14.01,2013-02-16 05:21:00,
2013-02-16 00:23:00,29.5,20.9,29.89,West,266,0.0,0.0,70,0.00,,---,0.00,VWS V14.01,2013-02-16 05:23:00,
2013-02-16 00:28:00,29.7,21.4,29.89,West,266,0.0,0.0,71,0.00,,---,0.00,VWS V14.01,2013-02-16 05:28:00,
2013-02-16 00:33:00,30.0,21.8,29.89,West,266,0.0,0.0,71,0.00,,---,0.00,VWS V14.01,2013-02-16 05:33:00,
2013-02-16 00:38:00,30.2,21.9,29.89,West,266,0.0,0.0,71,0.00,,---,0.00,VWS V14.01,2013-02-16 05:38:00,
2013-02-16 00:43:00,30.2,22.3,29.89,West,266,0.0,0.0,72,0.00,,---,0.00,VWS V14.01,2013-02-16 05:43:00,
2013-02-16 00:48:00,30.4,22.1,29.89,West,266,0.0,0.0,71,0.00,,---,0.00,VWS V14.01,2013-02-16 05:48:00,
2013-02-16 00:53:00,30.4,22.1,29.89,West,266,0.0,0.0,71,0.00,,---,0.00,VWS V14.01,2013-02-16 05:53:00,
2013-02-16 00:58:00,30.6,22.3,29.86,West,266,0.0,0.0,71,0.00,,---,0.00,VWS V14.01,2013-02-16 05:58:00,
2013-02-16 01:03:00,30.6,22.3,29.86,West,266,0.0,0.0,71,0.00,,---,0.00,VWS V14.01,2013-02-16 06:03:00,
2013-02-16 01:08:00,30.4,22.1,29.86,West,266,0.0,0.0,71,0.00,,---,0.00,VWS V14.01,2013-02-16 06:08:00,
2013-02-16 01:13:00,30.4,21.8,29.86,West,266,0.0,0.0,70,0.00,,---,0.00,VWS V14.01,2013-02-16 06:13:00,
2013-02-16 01:19:00,30.4,21.8,29.86,West,266,0.0,0.0,70,0.00,,---,0.00,VWS V14.01,2013-02-16 06:19:00,
2013-02-16 01:24:00,30.4,21.8,29.86,West,266,0.0,0.0,70,0.00,,---,0.00,VWS V14.01,2013-02-16 06:24:00,
2013-02-16 01:29:00,30.2,21.3,29.86,West,266,0.0,0.0,69,0.00,,---,0.00,VWS V14.01,2013-02-16 06:29:00,
2013-02-16 01:34:00,30.2,21.3,29.86,West,266,0.0,0.0,69,0.00,,---,0.00,VWS V14.01,2013-02-16 06:34:00,
2013-02-16 01:39:00,30.0,20.8,29.86,West,266,0.0,0.0,68,0.00,,---,0.00,VWS V14.01,2013-02-16 06:39:00,
2013-02-16 01:44:00,29.8,20.6,29.86,West,266,0.0,0.0,68,0.00,,---,0.00,VWS V14.01,2013-02-16 06:44:00,
2013-02-16 01:49:00,29.8,20.6,29.86,West,266,0.0,0.0,68,0.00,,---,0.00,VWS V14.01,2013-02-16 06:49:00,
2013-02-16 01:54:00,29.8,20.6,29.86,West,266,0.0,0.0,68,0.00,,---,0.00,VWS V14.01,2013-02-16 06:54:00,
2013-02-16 01:59:00,29.8,20.6,29.86,West,266,0.0,0.0,68,0.00,,---,0.00,VWS V14.01,2013-02-16 06:59:00,
2013-02-16 02:04:00,29.7,20.4,29.86,West,266,0.0,0.0,68,0.00,,---,0.00,VWS V14.01,2013-02-16 07:04:00,
2013-02-16 02:09:00,29.7,20.1,29.86,West,266,0.0,0.0,67,0.00,,---,0.00,VWS V14.01,2013-02-16 07:09:00,
2013-02-16 02:14:00,29.7,19.7,29.86,West,266,0.0,0.0,66,0.00,,---,0.00,VWS V14.01,2013-02-16 07:14:00,
2013-02-16 02:19:00,29.7,19.7,29.86,West,266,0.0,0.0,66,0.00,,---,0.00,VWS V14.01,2013-02-16 07:19:00,
2013-02-16 02:24:00,29.5,18.5,29.86,West,266,0.0,0.0,63,0.00,,---,0.00,VWS V14.01,2013-02-16 07:24:00,
2013-02-16 02:29:00,29.5,17.3,29.86,West,266,0.0,0.0,60,0.00,,---,0.00,VWS V14.01,2013-02-16 07:29:00,
2013-02-16 02:34:00,29.5,16.5,29.86,West,266,0.0,0.0,58,0.00,,---,0.00,VWS V14.01,2013-02-16 07:34:00,
2013-02-16 02:39:00,29.5,16.5,29.86,West,266,0.0,0.0,58,0.00,,---,0.00,VWS V14.01,2013-02-16 07:39:00,
2013-02-16 02:44:00,29.3,16.0,29.86,West,266,0.0,0.0,57,0.00,,---,0.00,VWS V14.01,2013-02-16 07:44:00,
2013-02-16 02:49:00,29.1,15.8,29.86,West,266,0.0,0.0,57,0.00,,---,0.00,VWS V14.01,2013-02-16 07:49:00,
2013-02-16 02:54:00,29.1,15.8,29.86,West,266,0.0,0.0,57,0.00,,---,0.00,VWS V14.01,2013-02-16 07:54:00,
2013-02-16 02:59:00,28.9,15.2,29.86,West,266,0.0,0.0,56,0.00,,---,0.00,VWS V14.01,2013-02-16 07:59:00,
2013-02-16 03:04:00,28.8,15.1,29.86,West,266,0.0,0.0,56,0.00,,---,0.00,VWS V14.01,2013-02-16 08:04:00,
2013-02-16 03:09:00,28.6,15.3,29.86,West,266,0.0,0.0,57,0.00,,---,0.00,VWS V14.01,2013-02-16 08:09:00,
2013-02-16 03:14:00,28.6,15.3,29.86,West,266,0.0,0.0,57,0.00,,---,0.00,VWS V14.01,2013-02-16 08:14:00,
2013-02-16 03:19:00,28.4,15.5,29.86,West,266,0.0,0.0,58,0.00,,---,0.00,VWS V14.01,2013-02-16 08:19:00,
2013-02-16 03:24:00,28.4,15.5,29.86,West,266,0.0,0.0,58,0.00,,---,0.00,VWS V14.01,2013-02-16 08:24:00,
2013-02-16 03:29:00,28.2,15.0,29.86,West,266,0.0,0.0,57,0.00,,---,0.00,VWS V14.01,2013-02-16 08:29:00,
2013-02-16 03:34:00,28.4,14.7,29.86,West,266,0.0,0.0,56,0.00,,---,0.00,VWS V14.01,2013-02-16 08:34:00,
2013-02-16 03:39:00,28.4,14.3,29.86,West,266,0.0,0.0,55,0.00,,---,0.00,VWS V14.01,2013-02-16 08:39:00,
2013-02-16 03:44:00,28.6,14.1,29.86,West,266,0.0,0.0,54,0.00,,---,0.00,VWS V14.01,2013-02-16 08:44:00,
2013-02-16 03:49:00,28.4,13.9,29.86,West,266,0.0,0.0,54,0.00,,---,0.00,VWS V14.01,2013-02-16 08:49:00,
2013-02-16 03:54:00,28.4,13.5,29.86,West,266,0.0,0.0,53,0.00,,---,0.00,VWS V14.01,2013-02-16 08:54:00,
2013-02-16 03:59:00,28.4,13.5,29.86,West,266,0.0,0.0,53,0.00,,---,0.00,VWS V14.01,2013-02-16 08:59:00,
2013-02-16 04:05:00,28.4,13.5,29.86,West,266,0.0,0.0,53,0.00,,---,0.00,VWS V14.01,2013-02-16 09:05:00,
2013-02-16 04:10:00,28.4,13.5,29.86,West,266,0.0,0.0,53,0.00,,---,0.00,VWS V14.01,2013-02-16 09:10:00,
2013-02-16 04:15:00,28.2,13.7,29.86,West,266,0.0,0.0,54,0.00,,---,0.00,VWS V14.01,2013-02-16 09:15:00,
2013-02-16 04:20:00,28.2,13.3,29.86,West,266,0.0,0.0,53,0.00,,---,0.00,VWS V14.01,2013-02-16 09:20:00,
2013-02-16 04:25:00,28.2,13.3,29.86,West,266,0.0,0.0,53,0.00,,---,0.00,VWS V14.01,2013-02-16 09:25:00,
2013-02-16 04:30:00,28.2,13.7,29.86,West,266,0.0,0.0,54,0.00,,---,0.00,VWS V14.01,2013-02-16 09:30:00,
2013-02-16 04:35:00,28.0,13.1,29.86,West,266,0.0,0.0,53,0.00,,---,0.00,VWS V14.01,2013-02-16 09:35:00,
2013-02-16 04:40:00,28.0,13.1,29.86,West,266,0.0,0.0,53,0.00,,---,0.00,VWS V14.01,2013-02-16 09:40:00,
2013-02-16 04:45:00,28.0,13.1,29.86,West,266,0.0,0.0,53,0.00,,---,0.00,VWS V14.01,2013-02-16 09:45:00,
2013-02-16 04:50:00,28.0,12.7,29.86,West,266,0.0,0.0,52,0.00,,---,0.00,VWS V14.01,2013-02-16 09:50:00,
2013-02-16 04:55:00,28.0,12.7,29.86,West,266,0.0,0.0,52,0.00,,---,0.00,VWS V14.01,2013-02-16 09:55:00,
2013-02-16 05:00:00,27.9,13.0,29.86,West,266,0.0,0.0,53,0.00,,---,0.00,VWS V14.01,2013-02-16 10:00:00,
2013-02-16 05:05:00,27.9,13.4,29.86,West,265,0.0,0.0,54,0.00,,---,0.00,VWS V14.01,2013-02-16 10:05:00,
2013-02-16 05:10:00,27.7,13.2,29.86,West,266,0.0,0.0,54,0.00,,---,0.00,VWS V14.01,2013-02-16 10:10:00,
2013-02-16 05:15:00,27.7,13.2,29.86,West,266,0.0,0.0,54,0.00,,---,0.00,VWS V14.01,2013-02-16 10:15:00,
2013-02-16 05:20:00,27.7,13.2,29.86,West,266,0.0,0.0,54,0.00,,---,0.00,VWS V14.01,2013-02-16 10:20:00,
2013-02-16 05:25:00,27.5,13.1,29.86,West,266,0.0,0.0,54,0.00,,---,0.00,VWS V14.01,2013-02-16 10:25:00,
2013-02-16 05:30:00,27.5,13.5,29.86,West,266,0.0,0.0,55,0.00,,---,0.00,VWS V14.01,2013-02-16 10:30:00,
2013-02-16 05:35:00,27.5,13.5,29.86,West,266,0.0,0.0,55,0.00,,---,0.00,VWS V14.01,2013-02-16 10:35:00,
2013-02-16 05:40:00,27.3,13.3,29.86,West,266,0.0,0.0,55,0.00,,---,0.00,VWS V14.01,2013-02-16 10:40:00,
2013-02-16 05:45:00,27.3,13.3,29.86,West,266,0.0,0.0,55,0.00,,---,0.00,VWS V14.01,2013-02-16 10:45:00,
2013-02-16 05:50:00,27.1,13.1,29.86,West,266,0.0,0.0,55,0.00,,---,0.00,VWS V14.01,2013-02-16 10:50:00,
2013-02-16 05:56:00,27.1,13.1,29.86,West,266,0.0,0.0,55,0.00,,---,0.00,VWS V14.01,2013-02-16 10:56:00,
2013-02-16 06:01:00,27.1,13.1,29.86,West,266,0.0,0.0,55,0.00,,---,0.00,VWS V14.01,2013-02-16 11:01:00,
2013-02-16 06:06:00,27.0,13.0,29.86,West,266,0.0,0.0,55,0.00,,---,0.00,VWS V14.01,2013-02-16 11:06:00,
2013-02-16 06:11:00,27.0,13.0,29.86,West,266,0.0,0.0,55,0.00,,---,0.00,VWS V14.01,2013-02-16 11:11:00,
2013-02-16 06:16:00,27.0,13.4,29.86,West,266,0.0,0.0,56,0.00,,---,0.00,VWS V14.01,2013-02-16 11:16:00,
2013-02-16 06:21:00,27.0,13.0,29.86,West,266,0.0,0.0,55,0.00,,---,0.00,VWS V14.01,2013-02-16 11:21:00,
2013-02-16 06:26:00,27.0,13.0,29.83,West,266,0.0,0.0,55,0.00,,---,0.00,VWS V14.01,2013-02-16 11:26:00,
2013-02-16 06:31:00,27.0,13.0,29.83,West,266,0.0,0.0,55,0.00,,---,0.00,VWS V14.01,2013-02-16 11:31:00,
2013-02-16 06:36:00,27.0,13.0,29.83,West,266,0.0,0.0,55,0.00,,---,0.00,VWS V14.01,2013-02-16 11:36:00,
2013-02-16 06:41:00,26.8,12.8,29.83,West,266,0.0,0.0,55,0.00,,---,0.00,VWS V14.01,2013-02-16 11:41:00,
2013-02-16 06:46:00,26.8,13.2,29.83,West,266,0.0,0.0,56,0.00,,---,0.00,VWS V14.01,2013-02-16 11:46:00,
2013-02-16 06:51:00,26.8,13.2,29.83,West,266,0.0,0.0,56,0.00,,---,0.00,VWS V14.01,2013-02-16 11:51:00,
2013-02-16 06:56:00,26.6,13.4,29.83,West,266,0.0,0.0,57,0.00,,---,0.00,VWS V14.01,2013-02-16 11:56:00,
2013-02-16 07:01:00,26.4,13.3,29.83,West,266,0.0,0.0,57,0.00,,---,0.00,VWS V14.01,2013-02-16 12:01:00,
2013-02-16 07:06:00,26.4,13.3,29.83,West,266,0.0,0.0,57,0.00,,---,0.00,VWS V14.01,2013-02-16 12:06:00,
2013-02-16 07:11:00,26.2,13.5,29.86,West,266,0.0,0.0,58,0.00,,---,0.00,VWS V14.01,2013-02-16 12:11:00,
2013-02-16 07:16:00,26.4,13.7,29.86,West,266,0.0,0.0,58,0.00,,---,0.00,VWS V14.01,2013-02-16 12:16:00,
2013-02-16 07:21:00,26.4,13.7,29.86,West,266,0.0,0.0,58,0.00,,---,0.00,VWS V14.01,2013-02-16 12:21:00,
2013-02-16 07:26:00,26.4,13.7,29.83,West,266,0.0,0.0,58,0.00,,---,0.00,VWS V14.01,2013-02-16 12:26:00,
2013-02-16 07:31:00,26.4,13.7,29.83,West,266,0.0,0.0,58,0.00,,---,0.00,VWS V14.01,2013-02-16 12:31:00,
2013-02-16 07:36:00,26.4,13.7,29.83,West,266,0.0,0.0,58,0.00,,---,0.00,VWS V14.01,2013-02-16 12:36:00,
2013-02-16 07:41:00,26.2,13.5,29.83,West,266,0.0,0.0,58,0.00,,---,0.00,VWS V14.01,2013-02-16 12:41:00,
2013-02-16 07:46:00,26.2,13.5,29.83,West,265,0.0,0.0,58,0.00,,---,0.00,VWS V14.01,2013-02-16 12:46:00,
2013-02-16 07:52:00,26.2,13.5,29.83,West,266,0.0,0.0,58,0.00,,---,0.00,VWS V14.01,2013-02-16 12:52:00,
2013-02-16 07:57:00,26.4,13.7,29.83,West,266,0.0,0.0,58,0.00,,---,0.00,VWS V14.01,2013-02-16 12:57:00,
2013-02-16 08:02:00,26.6,13.8,29.83,West,266,0.0,0.0,58,0.00,,---,0.00,VWS V14.01,2013-02-16 13:02:00,
2013-02-16 08:07:00,26.8,13.6,29.83,West,266,0.0,0.0,57,0.00,,---,0.00,VWS V14.01,2013-02-16 13:07:00,
2013-02-16 08:12:00,27.0,13.8,29.83,West,266,0.0,0.0,57,0.00,,---,0.00,VWS V14.01,2013-02-16 13:12:00,
2013-02-16 08:17:00,27.0,13.4,29.83,West,266,0.0,0.0,56,0.00,,---,0.00,VWS V14.01,2013-02-16 13:17:00,
2013-02-16 08:22:00,27.1,13.1,29.83,West,266,0.0,0.0,55,0.00,,---,0.00,VWS V14.01,2013-02-16 13:22:00,
2013-02-16 08:27:00,27.1,12.7,29.83,West,266,0.0,0.0,54,0.00,,---,0.00,VWS V14.01,2013-02-16 13:27:00,
2013-02-16 08:32:00,27.1,12.3,29.83,West,266,0.0,0.0,53,0.00,,---,0.00,VWS V14.01,2013-02-16 13:32:00,
2013-02-16 08:37:00,27.3,12.9,29.83,West,266,0.0,0.0,54,0.00,,---,0.00,VWS V14.01,2013-02-16 13:37:00,
2013-02-16 08:42:00,27.3,12.5,29.83,West,266,0.0,0.0,53,0.00,,---,0.00,VWS V14.01,2013-02-16 13:42:00,
2013-02-16 08:47:00,27.5,12.2,29.83,West,266,0.0,0.0,52,0.00,,---,0.00,VWS V14.01,2013-02-16 13:47:00,
2013-02-16 08:52:00,27.5,12.2,29.83,West,266,0.0,0.0,52,0.00,,---,0.00,VWS V14.01,2013-02-16 13:52:00,
2013-02-16 08:57:00,27.3,11.1,29.83,West,266,0.0,0.0,50,0.00,,---,0.00,VWS V14.01,2013-02-16 13:57:00,
2013-02-16 09:02:00,27.5,10.9,29.83,West,266,0.0,0.0,49,0.00,,---,0.00,VWS V14.01,2013-02-16 14:02:00,
2013-02-16 09:07:00,27.5,10.4,29.83,West,266,0.0,0.0,48,0.00,,---,0.00,VWS V14.01,2013-02-16 14:07:00,
2013-02-16 09:12:00,27.7,10.6,29.83,West,266,0.0,0.0,48,0.00,,---,0.00,VWS V14.01,2013-02-16 14:12:00,
2013-02-16 09:17:00,27.7,10.1,29.83,West,266,0.0,0.0,47,0.00,,---,0.00,VWS V14.01,2013-02-16 14:17:00,
2013-02-16 09:22:00,27.9,10.3,29.83,West,266,0.0,0.0,47,0.00,,---,0.00,VWS V14.01,2013-02-16 14:22:00,
2013-02-16 09:27:00,27.9,9.8,29.83,West,266,0.0,0.0,46,0.00,,---,0.00,VWS V14.01,2013-02-16 14:27:00,
2013-02-16 09:32:00,27.9,8.8,29.83,West,266,0.0,0.0,44,0.00,,---,0.00,VWS V14.01,2013-02-16 14:32:00,
2013-02-16 09:37:00,28.0,8.9,29.83,West,266,0.0,0.0,44,0.00,,---,0.00,VWS V14.01,2013-02-16 14:37:00,
2013-02-16 09:42:00,28.0,8.4,29.83,West,266,0.0,0.0,43,0.00,,---,0.00,VWS V14.01,2013-02-16 14:42:00,
2013-02-16 09:47:00,27.9,8.3,29.83,West,266,0.0,0.0,43,0.00,,---,0.00,VWS V14.01,2013-02-16 14:47:00,
2013-02-16 09:52:00,27.9,8.3,29.83,West,266,0.0,0.0,43,0.00,,---,0.00,VWS V14.01,2013-02-16 14:52:00,
2013-02-16 09:58:00,27.9,8.3,29.83,West,266,0.0,0.0,43,0.00,,---,0.00,VWS V14.01,2013-02-16 14:58:00,
2013-02-16 10:03:00,28.0,7.9,29.83,West,266,0.0,0.0,42,0.00,,---,0.00,VWS V14.01,2013-02-16 15:03:00,
2013-02-16 10:08:00,28.2,8.1,29.83,West,266,0.0,0.0,42,0.00,,---,0.00,VWS V14.01,2013-02-16 15:08:00,
2013-02-16 10:13:00,28.4,8.2,29.83,West,266,0.0,0.0,42,0.00,,---,0.00,VWS V14.01,2013-02-16 15:13:00,
2013-02-16 10:18:00,28.4,7.7,29.83,West,266,0.0,0.0,41,0.00,,---,0.00,VWS V14.01,2013-02-16 15:18:00,
2013-02-16 10:23:00,28.6,7.9,29.83,West,266,0.0,0.0,41,0.00,,---,0.00,VWS V14.01,2013-02-16 15:23:00,
2013-02-16 10:28:00,28.8,8.0,29.83,West,266,0.0,0.0,41,0.00,,---,0.00,VWS V14.01,2013-02-16 15:28:00,
2013-02-16 10:33:00,29.1,8.4,29.83,West,266,0.0,0.0,41,0.00,,---,0.00,VWS V14.01,2013-02-16 15:33:00,
2013-02-16 10:38:00,29.3,8.5,29.83,West,266,0.0,0.0,41,0.00,,---,0.00,VWS V14.01,2013-02-16 15:38:00,
2013-02-16 10:43:00,29.3,8.5,29.83,West,266,0.0,0.0,41,0.00,,---,0.00,VWS V14.01,2013-02-16 15:43:00,
2013-02-16 10:48:00,29.1,7.8,29.83,West,266,0.0,0.0,40,0.00,,---,0.00,VWS V14.01,2013-02-16 15:48:00,
2013-02-16 10:53:00,28.6,7.3,29.83,West,266,0.0,0.0,40,0.00,,---,0.00,VWS V14.01,2013-02-16 15:53:00,
2013-02-16 10:58:00,28.4,7.7,29.83,West,266,0.0,0.0,41,0.00,,---,0.00,VWS V14.01,2013-02-16 15:58:00,
2013-02-16 11:03:00,28.4,7.7,29.83,West,266,0.0,0.0,41,0.00,,---,0.00,VWS V14.01,2013-02-16 16:03:00,
2013-02-16 11:08:00,28.6,7.9,29.83,West,266,0.0,0.0,41,0.00,,---,0.00,VWS V14.01,2013-02-16 16:08:00,
2013-02-16 11:13:00,28.6,7.9,29.80,West,266,0.0,0.0,41,0.00,,---,0.00,VWS V14.01,2013-02-16 16:13:00,
2013-02-16 11:18:00,28.6,7.9,29.80,West,266,0.0,0.0,41,0.00,,---,0.00,VWS V14.01,2013-02-16 16:18:00,
2013-02-16 11:23:00,28.2,7.6,29.80,West,266,0.0,0.0,41,0.00,,---,0.00,VWS V14.01,2013-02-16 16:23:00,
2013-02-16 11:28:00,28.4,7.7,29.80,West,266,0.0,0.0,41,0.00,,---,0.00,VWS V14.01,2013-02-16 16:28:00,
2013-02-16 11:33:00,28.6,8.4,29.80,West,266,0.0,0.0,42,0.00,,---,0.00,VWS V14.01,2013-02-16 16:33:00,
2013-02-16 11:38:00,28.8,8.6,29.80,West,266,0.0,0.0,42,0.00,,---,0.00,VWS V14.01,2013-02-16 16:38:00,
2013-02-16 11:43:00,28.9,8.2,29.80,West,266,0.0,0.0,41,0.00,,---,0.00,VWS V14.01,2013-02-16 16:43:00,
2013-02-16 11:48:00,28.9,8.2,29.80,West,266,0.0,0.0,41,0.00,,---,0.00,VWS V14.01,2013-02-16 16:48:00,
2013-02-16 11:53:00,28.8,8.0,29.80,West,266,0.0,0.0,41,0.00,,---,0.00,VWS V14.01,2013-02-16 16:53:00,
2013-02-16 11:58:00,28.9,8.2,29.80,West,266,0.0,0.0,41,0.00,,---,0.00,VWS V14.01,2013-02-16 16:58:00,
2013-02-16 12:03:00,28.8,8.0,29.80,West,266,0.0,0.0,41,0.00,,---,0.00,VWS V14.01,2013-02-16 17:03:00,
2013-02-16 12:08:00,28.8,8.0,29.80,West,265,0.0,0.0,41,0.00,,---,0.00,VWS V14.01,2013-02-16 17:08:00,
2013-02-16 12:13:00,28.8,8.0,29.80,West,266,0.0,0.0,41,0.00,,---,0.00,VWS V14.01,2013-02-16 17:13:00,
2013-02-16 12:18:00,28.9,8.2,29.80,West,266,0.0,0.0,41,0.00,,---,0.00,VWS V14.01,2013-02-16 17:18:00,
2013-02-16 12:23:00,28.8,8.0,29.80,West,266,0.0,0.0,41,0.00,,---,0.00,VWS V14.01,2013-02-16 17:23:00,
2013-02-16 12:29:00,28.9,8.2,29.80,West,266,0.0,0.0,41,0.00,,---,0.00,VWS V14.01,2013-02-16 17:29:00,
2013-02-16 12:34:00,29.1,8.4,29.80,West,266,0.0,0.0,41,0.00,,---,0.00,VWS V14.01,2013-02-16 17:34:00,
2013-02-16 12:39:00,29.3,8.5,29.80,West,266,0.0,0.0,41,0.00,,---,0.00,VWS V14.01,2013-02-16 17:39:00,
2013-02-16 12:44:00,29.3,8.0,29.77,West,266,0.0,0.0,40,0.00,,---,0.00,VWS V14.01,2013-02-16 17:44:00,
2013-02-16 12:49:00,29.3,8.5,29.77,West,266,0.0,0.0,41,0.00,,---,0.00,VWS V14.01,2013-02-16 17:49:00,
2013-02-16 12:54:00,29.5,8.7,29.77,West,266,0.0,0.0,41,0.00,,---,0.00,VWS V14.01,2013-02-16 17:54:00,
2013-02-16 12:59:00,29.5,8.1,29.77,West,266,0.0,0.0,40,0.00,,---,0.00,VWS V14.01,2013-02-16 17:59:00,
2013-02-16 13:04:00,29.3,7.4,29.77,West,266,0.0,0.0,39,0.00,,---,0.00,VWS V14.01,2013-02-16 18:04:00,
2013-02-16 13:09:00,29.3,8.0,29.77,West,266,0.0,0.0,40,0.00,,---,0.00,VWS V14.01,2013-02-16 18:09:00,
2013-02-16 13:14:00,29.5,8.1,29.77,West,266,0.0,0.0,40,0.00,,---,0.00,VWS V14.01,2013-02-16 18:14:00,
2013-02-16 13:19:00,29.8,8.5,29.77,West,266,0.0,0.0,40,0.00,,---,0.00,VWS V14.01,2013-02-16 18:19:00,
2013-02-16 13:24:00,30.2,8.8,29.77,West,266,0.0,0.0,40,0.00,,---,0.00,VWS V14.01,2013-02-16 18:24:00,
2013-02-16 13:29:00,30.2,7.7,29.77,West,266,0.0,0.0,38,0.00,,---,0.00,VWS V14.01,2013-02-16 18:29:00,
2013-02-16 13:34:00,30.0,8.1,29.77,West,266,0.0,0.0,39,0.00,,---,0.00,VWS V14.01,2013-02-16 18:34:00,
2013-02-16 13:39:00,29.8,6.8,29.77,West,266,0.0,0.0,37,0.00,,---,0.00,VWS V14.01,2013-02-16 18:39:00,
2013-02-16 13:44:00,29.7,7.2,29.74,West,266,0.0,0.0,38,0.00,,---,0.00,VWS V14.01,2013-02-16 18:44:00,
2013-02-16 13:49:00,29.8,7.3,29.74,West,266,0.0,0.0,38,0.00,,---,0.00,VWS V14.01,2013-02-16 18:49:00,
2013-02-16 13:54:00,29.8,6.8,29.74,West,266,0.0,0.0,37,0.00,,---,0.00,VWS V14.01,2013-02-16 18:54:00,
2013-02-16 13:59:00,29.8,6.8,29.74,West,266,0.0,0.0,37,0.00,,---,0.00,VWS V14.01,2013-02-16 18:59:00,
2013-02-16 14:04:00,29.7,7.2,29.74,West,266,0.0,0.0,38,0.00,,---,0.00,VWS V14.01,2013-02-16 19:04:00,
2013-02-16 14:09:00,29.8,7.9,29.74,West,266,0.0,0.0,39,0.00,,---,0.00,VWS V14.01,2013-02-16 19:09:00,
2013-02-16 14:14:00,29.8,6.8,29.74,West,266,0.0,0.0,37,0.00,,---,0.00,VWS V14.01,2013-02-16 19:14:00,
2013-02-16 14:19:00,29.5,5.8,29.74,West,266,0.0,0.0,36,0.00,,---,0.00,VWS V14.01,2013-02-16 19:19:00,
2013-02-16 14:25:00,29.3,5.1,29.74,West,266,0.0,0.0,35,0.00,,---,0.00,VWS V14.01,2013-02-16 19:25:00,
2013-02-16 14:30:00,29.3,5.1,29.74,West,266,0.0,0.0,35,0.00,,---,0.00,VWS V14.01,2013-02-16 19:30:00,
2013-02-16 14:35:00,29.5,5.8,29.74,West,266,0.0,0.0,36,0.00,,---,0.00,VWS V14.01,2013-02-16 19:35:00,
2013-02-16 14:40:00,29.7,6.0,29.74,West,266,0.0,0.0,36,0.00,,---,0.00,VWS V14.01,2013-02-16 19:40:00,
2013-02-16 14:45:00,29.8,6.2,29.74,West,266,0.0,0.0,36,0.00,,---,0.00,VWS V14.01,2013-02-16 19:45:00,
2013-02-16 14:50:00,29.8,6.2,29.74,West,266,0.0,0.0,36,0.00,,---,0.00,VWS V14.01,2013-02-16 19:50:00,
2013-02-16 14:55:00,30.0,6.3,29.74,West,266,0.0,0.0,36,0.00,,---,0.00,VWS V14.01,2013-02-16 19:55:00,
2013-02-16 15:00:00,29.8,6.2,29.74,West,266,0.0,0.0,36,0.00,,---,0.00,VWS V14.01,2013-02-16 20:00:00,
2013-02-16 15:05:00,29.8,6.2,29.74,West,266,0.0,0.0,36,0.00,,---,0.00,VWS V14.01,2013-02-16 20:05:00,
2013-02-16 15:10:00,29.8,5.5,29.74,West,266,0.0,0.0,35,0.00,,---,0.00,VWS V14.01,2013-02-16 20:10:00,
2013-02-16 15:15:00,29.5,5.2,29.74,West,266,0.0,0.0,35,0.00,,---,0.00,VWS V14.01,2013-02-16 20:15:00,
2013-02-16 15:20:00,29.3,5.1,29.74,West,266,0.0,0.0,35,0.00,,---,0.00,VWS V14.01,2013-02-16 20:20:00,
2013-02-16 15:25:00,29.3,5.1,29.74,West,266,0.0,0.0,35,0.00,,---,0.00,VWS V14.01,2013-02-16 20:25:00,
2013-02-16 15:30:00,29.1,4.9,29.74,West,266,0.0,0.0,35,0.00,,---,0.00,VWS V14.01,2013-02-16 20:30:00,
2013-02-16 15:35:00,29.1,4.9,29.74,West,266,0.0,0.0,35,0.00,,---,0.00,VWS V14.01,2013-02-16 20:35:00,
2013-02-16 15:40:00,28.9,4.7,29.74,West,266,0.0,0.0,35,0.00,,---,0.00,VWS V14.01,2013-02-16 20:40:00,
2013-02-16 15:45:00,28.8,4.6,29.74,West,266,0.0,0.0,35,0.00,,---,0.00,VWS V14.01,2013-02-16 20:45:00,
2013-02-16 15:50:00,28.4,4.2,29.74,West,266,0.0,0.0,35,0.00,,---,0.00,VWS V14.01,2013-02-16 20:50:00,
2013-02-16 15:55:00,28.4,4.2,29.77,West,266,0.0,0.0,35,0.00,,---,0.00,VWS V14.01,2013-02-16 20:55:00,
2013-02-16 16:00:00,28.4,4.2,29.77,West,266,0.0,0.0,35,0.00,,---,0.00,VWS V14.01,2013-02-16 21:00:00,
2013-02-16 16:05:00,28.2,4.1,29.77,West,266,0.0,0.0,35,0.00,,---,0.00,VWS V14.01,2013-02-16 21:05:00,
2013-02-16 16:11:00,28.2,4.7,29.77,West,267,0.0,0.0,36,0.00,,---,0.00,VWS V14.01,2013-02-16 21:11:00,
2013-02-16 16:16:00,28.0,3.9,29.77,West,266,0.0,0.0,35,0.00,,---,0.00,VWS V14.01,2013-02-16 21:16:00,
2013-02-16 16:21:00,28.0,3.9,29.77,West,266,0.0,0.0,35,0.00,,---,0.00,VWS V14.01,2013-02-16 21:21:00,
2013-02-16 16:26:00,28.0,3.9,29.77,West,266,0.0,0.0,35,0.00,,---,0.00,VWS V14.01,2013-02-16 21:26:00,
2013-02-16 16:31:00,27.9,3.2,29.77,West,266,0.0,0.0,34,0.00,,---,0.00,VWS V14.01,2013-02-16 21:31:00,
2013-02-16 16:36:00,27.9,3.2,29.77,West,266,0.0,0.0,34,0.00,,---,0.00,VWS V14.01,2013-02-16 21:36:00,
2013-02-16 16:41:00,27.9,3.2,29.77,West,266,0.0,0.0,34,0.00,,---,0.00,VWS V14.01,2013-02-16 21:41:00,
2013-02-16 16:46:00,28.4,3.6,29.77,West,266,0.0,0.0,34,0.00,,---,0.00,VWS V14.01,2013-02-16 21:46:00,
2013-02-16 16:51:00,29.1,4.3,29.77,West,266,0.0,0.0,34,0.00,,---,0.00,VWS V14.01,2013-02-16 21:51:00,
2013-02-16 16:56:00,29.5,3.9,29.77,West,266,0.0,0.0,33,0.00,,---,0.00,VWS V14.01,2013-02-16 21:56:00,
2013-02-16 17:01:00,29.7,3.4,29.77,West,266,0.0,0.0,32,0.00,,---,0.00,VWS V14.01,2013-02-16 22:01:00,
2013-02-16 17:06:00,30.0,4.4,29.77,West,266,0.0,0.0,33,0.00,,---,0.00,VWS V14.01,2013-02-16 22:06:00,
2013-02-16 17:11:00,30.2,3.9,29.77,West,266,0.0,0.0,32,0.00,,---,0.00,VWS V14.01,2013-02-16 22:11:00,
2013-02-16 17:16:00,30.0,3.8,29.77,West,266,0.0,0.0,32,0.00,,---,0.00,VWS V14.01,2013-02-16 22:16:00,
2013-02-16 17:21:00,28.8,2.6,29.77,West,266,0.0,0.0,32,0.00,,---,0.00,VWS V14.01,2013-02-16 22:21:00,
2013-02-16 17:26:00,27.9,2.5,29.77,West,266,0.0,0.0,33,0.00,,---,0.00,VWS V14.01,2013-02-16 22:26:00,
2013-02-16 17:31:00,27.7,2.3,29.77,West,266,0.0,0.0,33,0.00,,---,0.00,VWS V14.01,2013-02-16 22:31:00,
2013-02-16 17:37:00,27.9,2.5,29.77,West,266,0.0,0.0,33,0.00,,---,0.00,VWS V14.01,2013-02-16 22:37:00,
2013-02-16 17:42:00,27.1,1.9,29.77,West,266,0.0,0.0,33,0.00,,---,0.00,VWS V14.01,2013-02-16 22:42:00,
2013-02-16 17:47:00,26.6,1.4,29.77,West,266,0.0,0.0,33,0.00,,---,0.00,VWS V14.01,2013-02-16 22:47:00,
2013-02-16 17:52:00,26.1,0.9,29.77,West,266,0.0,0.0,33,0.00,,---,0.00,VWS V14.01,2013-02-16 22:52:00,
2013-02-16 17:57:00,25.5,0.4,29.77,West,266,0.0,0.0,33,0.00,,---,0.00,VWS V14.01,2013-02-16 22:57:00,
2013-02-16 18:02:00,25.3,0.3,29.77,West,266,0.0,0.0,33,0.00,,---,0.00,VWS V14.01,2013-02-16 23:02:00,
2013-02-16 18:07:00,25.0,0.6,29.77,West,266,0.0,0.0,34,0.00,,---,0.00,VWS V14.01,2013-02-16 23:07:00,
2013-02-16 18:12:00,24.8,0.4,29.77,West,266,0.0,0.0,34,0.00,,---,0.00,VWS V14.01,2013-02-16 23:12:00,
2013-02-16 18:17:00,24.6,0.9,29.77,West,266,0.0,0.0,35,0.00,,---,0.00,VWS V14.01,2013-02-16 23:17:00,
2013-02-16 18:22:00,24.4,0.7,29.77,West,266,0.0,0.0,35,0.00,,---,0.00,VWS V14.01,2013-02-16 23:22:00,
2013-02-16 18:27:00,24.4,0.7,29.77,West,266,0.0,0.0,35,0.00,,---,0.00,VWS V14.01,2013-02-16 23:27:00,
2013-02-16 18:32:00,24.3,0.6,29.77,West,266,0.0,0.0,35,0.00,,---,0.00,VWS V14.01,2013-02-16 23:32:00,
2013-02-16 18:37:00,23.9,0.2,29.77,West,266,0.0,0.0,35,0.00,,---,0.00,VWS V14.01,2013-02-16 23:37:00,
2013-02-16 18:42:00,23.7,0.7,29.77,West,266,0.0,0.0,36,0.00,,---,0.00,VWS V14.01,2013-02-16 23:42:00,
2013-02-16 18:47:00,23.5,1.1,29.77,West,266,0.0,0.0,37,0.00,,---,0.00,VWS V14.01,2013-02-16 23:47:00,
2013-02-16 18:53:00,23.4,0.9,29.77,West,266,0.0,0.0,37,0.00,,---,0.00,VWS V14.01,2013-02-16 23:53:00,
2013-02-16 18:58:00,23.2,0.8,29.77,West,266,0.0,0.0,37,0.00,,---,0.00,VWS V14.01,2013-02-16 23:58:00,
2013-02-16 19:03:00,23.2,1.4,29.77,West,266,0.0,0.0,38,0.00,,---,0.00,VWS V14.01,2013-02-17 00:03:00,
2013-02-16 19:08:00,23.0,1.2,29.77,West,266,0.0,0.0,38,0.00,,---,0.00,VWS V14.01,2013-02-17 00:08:00,
2013-02-16 19:13:00,22.8,1.0,29.77,West,266,0.0,0.0,38,0.00,,---,0.00,VWS V14.01,2013-02-17 00:13:00,
2013-02-16 19:18:00,22.8,1.6,29.77,West,265,0.0,0.0,39,0.00,,---,0.00,VWS V14.01,2013-02-17 00:18:00,
2013-02-16 19:23:00,22.6,1.4,29.77,West,266,0.0,0.0,39,0.00,,---,0.00,VWS V14.01,2013-02-17 00:23:00,
2013-02-16 19:28:00,22.5,1.8,29.77,West,266,0.0,0.0,40,0.00,,---,0.00,VWS V14.01,2013-02-17 00:28:00,
2013-02-16 19:33:00,22.1,1.5,29.77,West,266,0.0,0.0,40,0.00,,---,0.00,VWS V14.01,2013-02-17 00:33:00,
2013-02-16 19:38:00,21.9,1.8,29.77,West,266,0.0,0.0,41,0.00,,---,0.00,VWS V14.01,2013-02-17 00:38:00,
2013-02-16 19:43:00,21.9,2.4,29.77,West,266,0.0,0.0,42,0.00,,---,0.00,VWS V14.01,2013-02-17 00:43:00,
2013-02-16 19:48:00,21.9,2.4,29.77,West,266,0.0,0.0,42,0.00,,---,0.00,VWS V14.01,2013-02-17 00:48:00,
2013-02-16 19:53:00,21.9,2.4,29.77,West,266,0.0,0.0,42,0.00,,---,0.00,VWS V14.01,2013-02-17 00:53:00,
2013-02-16 19:58:00,21.7,2.2,29.77,West,266,0.0,0.0,42,0.00,,---,0.00,VWS V14.01,2013-02-17 00:58:00,
2013-02-16 20:04:00,21.7,2.7,29.77,West,266,0.0,0.0,43,0.00,,---,0.00,VWS V14.01,2013-02-17 01:04:00,
2013-02-16 20:09:00,21.9,2.9,29.77,West,266,0.0,0.0,43,0.00,,---,0.00,VWS V14.01,2013-02-17 01:09:00,
2013-02-16 20:14:00,22.1,3.0,29.77,West,267,0.0,0.0,43,0.00,,---,0.00,VWS V14.01,2013-02-17 01:14:00,
2013-02-16 20:19:00,22.1,3.0,29.77,West,267,0.0,0.0,43,0.00,,---,0.00,VWS V14.01,2013-02-17 01:19:00,
2013-02-16 20:24:00,21.9,2.9,29.77,West,266,0.0,0.0,43,0.00,,---,0.00,VWS V14.01,2013-02-17 01:24:00,
2013-02-16 20:29:00,21.9,2.9,29.77,West,266,0.0,0.0,43,0.00,,---,0.00,VWS V14.01,2013-02-17 01:29:00,
2013-02-16 20:34:00,21.7,2.7,29.77,West,266,0.0,0.0,43,0.00,,---,0.00,VWS V14.01,2013-02-17 01:34:00,
2013-02-16 20:39:00,21.6,2.5,29.77,West,266,0.0,0.0,43,0.00,,---,0.00,VWS V14.01,2013-02-17 01:39:00,
2013-02-16 20:44:00,21.7,2.7,29.77,West,266,0.0,0.0,43,0.00,,---,0.00,VWS V14.01,2013-02-17 01:44:00,
2013-02-16 20:49:00,21.7,2.2,29.77,West,266,0.0,0.0,42,0.00,,---,0.00,VWS V14.01,2013-02-17 01:49:00,
2013-02-16 20:54:00,21.7,2.2,29.77,West,266,0.0,0.0,42,0.00,,---,0.00,VWS V14.01,2013-02-17 01:54:00,
2013-02-16 20:59:00,21.6,2.0,29.77,West,266,0.0,0.0,42,0.00,,---,0.00,VWS V14.01,2013-02-17 01:59:00,
2013-02-16 21:04:00,21.4,1.9,29.77,West,266,0.0,0.0,42,0.00,,---,0.00,VWS V14.01,2013-02-17 02:04:00,
2013-02-16 21:09:00,21.4,1.9,29.77,West,266,0.0,0.0,42,0.00,,---,0.00,VWS V14.01,2013-02-17 02:09:00,
2013-02-16 21:14:00,21.4,1.9,29.77,West,266,0.0,0.0,42,0.00,,---,0.00,VWS V14.01,2013-02-17 02:14:00,
2013-02-16 21:19:00,21.2,2.2,29.77,West,266,0.0,0.0,43,0.00,,---,0.00,VWS V14.01,2013-02-17 02:19:00,
2013-02-16 21:24:00,20.8,1.9,29.77,West,266,0.0,0.0,43,0.00,,---,0.00,VWS V14.01,2013-02-17 02:24:00,
2013-02-16 21:29:00,20.7,1.7,29.77,West,266,0.0,0.0,43,0.00,,---,0.00,VWS V14.01,2013-02-17 02:29:00,
2013-02-16 21:34:00,20.5,1.5,29.77,West,266,0.0,0.0,43,0.00,,---,0.00,VWS V14.01,2013-02-17 02:34:00,
2013-02-16 21:39:00,20.5,1.5,29.77,West,266,0.0,0.0,43,0.00,,---,0.00,VWS V14.01,2013-02-17 02:39:00,
2013-02-16 21:44:00,20.5,1.5,29.77,West,266,0.0,0.0,43,0.00,,---,0.00,VWS V14.01,2013-02-17 02:44:00,
2013-02-16 21:50:00,20.5,1.5,29.77,West,266,0.0,0.0,43,0.00,,---,0.00,VWS V14.01,2013-02-17 02:50:00,
2013-02-16 21:55:00,20.7,1.7,29.77,West,266,0.0,0.0,43,0.00,,---,0.00,VWS V14.01,2013-02-17 02:55:00,
2013-02-16 22:00:00,20.3,1.4,29.77,West,266,0.0,0.0,43,0.00,,---,0.00,VWS V14.01,2013-02-17 03:00:00,
2013-02-16 22:05:00,20.3,1.9,29.77,West,266,0.0,0.0,44,0.00,,---,0.00,VWS V14.01,2013-02-17 03:05:00,
2013-02-16 22:10:00,20.1,1.7,29.77,West,266,0.0,0.0,44,0.00,,---,0.00,VWS V14.01,2013-02-17 03:10:00,
2013-02-16 22:15:00,19.9,1.5,29.77,West,266,0.0,0.0,44,0.00,,---,0.00,VWS V14.01,2013-02-17 03:15:00,
2013-02-16 22:20:00,19.9,1.5,29.77,West,266,0.0,0.0,44,0.00,,---,0.00,VWS V14.01,2013-02-17 03:20:00,
2013-02-16 22:25:00,19.9,1.5,29.77,West,266,0.0,0.0,44,0.00,,---,0.00,VWS V14.01,2013-02-17 03:25:00,
2013-02-16 22:30:00,19.9,1.5,29.77,West,266,0.0,0.0,44,0.00,,---,0.00,VWS V14.01,2013-02-17 03:30:00,
2013-02-16 22:35:00,19.8,1.4,29.77,West,266,0.0,0.0,44,0.00,,---,0.00,VWS V14.01,2013-02-17 03:35:00,
2013-02-16 22:40:00,19.6,1.2,29.77,West,266,0.0,0.0,44,0.00,,---,0.00,VWS V14.01,2013-02-17 03:40:00,
2013-02-16 22:45:00,19.4,1.5,29.77,West,266,0.0,0.0,45,0.00,,---,0.00,VWS V14.01,2013-02-17 03:45:00,
2013-02-16 22:50:00,19.4,1.5,29.77,West,266,0.0,0.0,45,0.00,,---,0.00,VWS V14.01,2013-02-17 03:50:00,
2013-02-16 22:55:00,19.4,1.5,29.77,West,266,0.0,0.0,45,0.00,,---,0.00,VWS V14.01,2013-02-17 03:55:00,
2013-02-16 23:00:00,19.6,1.2,29.77,West,266,0.0,0.0,44,0.00,,---,0.00,VWS V14.01,2013-02-17 04:00:00,
2013-02-16 23:05:00,19.8,1.4,29.77,West,266,0.0,0.0,44,0.00,,---,0.00,VWS V14.01,2013-02-17 04:05:00,
2013-02-16 23:11:00,19.6,1.2,29.77,West,266,0.0,0.0,44,0.00,,---,0.00,VWS V14.01,2013-02-17 04:11:00,
2013-02-16 23:16:00,19.4,1.1,29.77,West,266,0.0,0.0,44,0.00,,---,0.00,VWS V14.01,2013-02-17 04:16:00,
2013-02-16 23:21:00,19.4,1.1,29.77,West,266,0.0,0.0,44,0.00,,---,0.00,VWS V14.01,2013-02-17 04:21:00,
2013-02-16 23:26:00,19.2,0.9,29.77,West,266,0.0,0.0,44,0.00,,---,0.00,VWS V14.01,2013-02-17 04:26:00,
2013-02-16 23:31:00,19.0,1.2,29.77,West,266,0.0,0.0,45,0.00,,---,0.00,VWS V14.01,2013-02-17 04:31:00,
2013-02-16 23:36:00,18.9,1.0,29.77,West,266,0.0,0.0,45,0.00,,---,0.00,VWS V14.01,2013-02-17 04:36:00,
2013-02-16 23:41:00,18.7,0.9,29.77,West,266,0.0,0.0,45,0.00,,---,0.00,VWS V14.01,2013-02-17 04:41:00,
2013-02-16 23:46:00,18.7,0.9,29.77,West,266,0.0,0.0,45,0.00,,---,0.00,VWS V14.01,2013-02-17 04:46:00,
2013-02-16 23:51:00,18.7,0.9,29.77,West,266,0.0,0.0,45,0.00,,---,0.00,VWS V14.01,2013-02-17 04:51:00,
2013-02-16 23:56:00,19.2,1.4,29.77,West,266,0.0,0.0,45,0.00,,---,0.00,VWS V14.01,2013-02-17 04:56:00,